To NAV CANADA Home Page Login to a new session Search on AWWS site Feedback and Comments Disclaimer Vers la page française équivalente Tips FAQ What's new on the site To the Forecasts and Observations / NOTAM section To "File a Flight Plan" website Publications and other links Update of the User's profile FIC Telephone Numbers My Weather Data Folder Route Weather Data Regional Weather Data Local Weather Data To the Forecasts and Observations / NOTAM section
Request Generated 11/28/2015 at 20:11:50 UTC . Weather information available at that time is displayed.



LWIS CYBV 282000Z AUTO 26006KT M03/M05 A3024=
LWIS CYBV 281900Z AUTO 29006KT M03/M05 A3024=
LWIS CYBV 281800Z AUTO 17002KT M04/M05 A3024=

CYBV - No TAF is issued for this station

Your time UTC time
Weather data provided by Environment Canada and NAV CANADA